Location: Madrid
(40.4000°N, 3.6830°W)
Time: 01:49:14
(UTC+02:00)

ISS - Pass Details

Date: 18 July 2019
Orbit: 409 x 418 km, 51.6° (Epoch: 23 July)

Event Time Altitude Azimuth Distance (km) Brightness Sun altitude
Rises 22:58:24 0° 237° (WSW) 2,344 0.2 -12.7°
Reaches altitude 10° 23:00:29 10° 239° (WSW) 1,483 -0.8 -12.9°
Maximum altitude 23:03:49 73° 325° (NW) 437 -3.6 -13.4°
Drops below altitude 10° 23:07:08 10° 50° (NE) 1,486 -1.0 -13.9°
Sets 23:09:14 0° 52° (NE) 2,349 0.0 -14.2°
